Weather History for Clinton, IA

Change the Weather History Date:

Friday, July 19, 2013

  Actual Average Record
Temperature  
Mean Temperature 81 °F -  
Max Temperature 93 °F 86 °F 97 °F (1991)
Min Temperature 69 °F 66 °F 48 °F (2003)
Cooling Degree Days 16    
Growing Degree Days 31 (Base 50)    
Moisture  
Dew Point 33 °F    
Average Humidity 19    
Maximum Humidity 38    
Minimum Humidity 9    
Precipitation  
Precipitation 0.03 in - - ()
Sea Level Pressure  
Sea Level Pressure 29.89 in    
Wind  
Wind Speed 10 mph (WSW)    
Max Wind Speed 22 mph    
Max Gust Speed 29 mph    
Visibility 10 miles    
Events Thunderstorm    
Averages and records for this station are not official NWS values.
T = Trace of Precipitation, MM = Missing Value Source: NWS Daily Summary

Daily Weather History Graph

Daily Weather History Graph

Search for Another Location

Airport:

Trip Planner

Search our weather history database for the weather conditions in past years. The results will help you decide how hot, cold, wet, or windy it might be!

Date:

Astronomy

Jul. 19, 2013 Rise Set
Actual Time 5:43 AM CDT 8:31 PM CDT
Civil Twilight 5:10 AM CDT 9:04 PM CDT
Nautical Twilight 4:29 AM CDT 9:45 PM CDT
Astronomical Twilight 3:41 AM CDT 10:32 PM CDT
Moon 5:34 PM CDT (7/19) 2:24 AM CDT (7/19)
Length of Visible Light 15h 53m
Length of Day
14h 48m
Waxing Gibbous, 87% of the Moon is Illuminated
Jul 19
Waxing Gibbous
Jul 22
Full
Jul 29
Last Quarter
Aug 6
New
Aug 14
First Quarter

Hourly Weather History & Observations

Time (CDT) Temp. Dew Point Humidity Pressure Visibility Wind Dir Wind Speed Gust Speed Precip Events Conditions
12:15 AM 75.2 °F 39.2 °F 27% 29.98 in 10.0 mi SSW 6.9 mph - N/A   Clear
12:35 AM 75.2 °F 39.2 °F 27% 29.97 in 10.0 mi SSW 6.9 mph - N/A   Clear
12:55 AM 73.4 °F 41.0 °F 31% 29.97 in 10.0 mi SSW 5.8 mph - N/A   Clear
1:15 AM 75.2 °F 39.2 °F 27% 29.97 in 10.0 mi SSW 6.9 mph - N/A   Clear
1:35 AM 75.2 °F 39.2 °F 27% 29.96 in 10.0 mi SW 8.1 mph - N/A   Clear
1:55 AM 75.2 °F 39.2 °F 27% 29.96 in 10.0 mi SW 6.9 mph - N/A   Clear
2:15 AM 75.2 °F 44.6 °F 34% 29.96 in 10.0 mi SW 8.1 mph - N/A   Clear
2:35 AM 75.2 °F 39.2 °F 27% 29.95 in 10.0 mi SW 6.9 mph - N/A   Clear
2:55 AM 75.2 °F 39.2 °F 27% 29.94 in 10.0 mi SW 8.1 mph - N/A   Clear
3:15 AM 75.2 °F 39.2 °F 27% 29.94 in 10.0 mi SW 8.1 mph - N/A   Clear
3:35 AM 75.2 °F 39.2 °F 27% 29.93 in 10.0 mi SW 8.1 mph - N/A   Clear
3:55 AM 75.2 °F 39.2 °F 27% 29.93 in 10.0 mi SW 9.2 mph - N/A   Clear
4:15 AM 75.2 °F 39.2 °F 27% 29.92 in 10.0 mi SW 8.1 mph - N/A   Clear
4:35 AM 73.4 °F 37.4 °F 27% 29.92 in 10.0 mi SW 8.1 mph - N/A   Clear
4:55 AM 73.4 °F 46.4 °F 38% 29.92 in 10.0 mi SW 6.9 mph - N/A   Clear
5:15 AM 73.4 °F 37.4 °F 27% 29.92 in 10.0 mi SW 8.1 mph - N/A   Clear
5:35 AM 73.4 °F 37.4 °F 27% 29.92 in 10.0 mi SW 8.1 mph - N/A   Clear
5:55 AM 73.4 °F 37.4 °F 27% 29.92 in 10.0 mi SW 8.1 mph - N/A   Clear
6:15 AM 75.2 °F 39.2 °F 27% 29.92 in 10.0 mi SW 9.2 mph - N/A   Clear
6:35 AM 75.2 °F 37.4 °F 25% 29.92 in 10.0 mi SW 10.4 mph - N/A   Clear
6:55 AM 77.0 °F 42.8 °F 29% 29.93 in 10.0 mi WSW 11.5 mph - N/A   Clear
7:15 AM 78.8 °F 37.4 °F 23% 29.93 in 10.0 mi WSW 10.4 mph - N/A   Partly Cloudy
7:35 AM 78.8 °F 37.4 °F 23% 29.93 in 10.0 mi WSW 13.8 mph 18.4 mph N/A   Partly Cloudy
7:55 AM 80.6 °F 37.4 °F 21% 29.92 in 10.0 mi WSW 13.8 mph 18.4 mph N/A   Clear
8:15 AM 80.6 °F 37.4 °F 21% 29.92 in 10.0 mi WSW 13.8 mph 18.4 mph N/A   Clear
8:35 AM 82.4 °F 37.4 °F 20% 29.93 in 10.0 mi WSW 13.8 mph - N/A   Clear
8:55 AM 82.4 °F 37.4 °F 20% 29.94 in 10.0 mi WSW 11.5 mph 18.4 mph N/A   Clear
9:15 AM 84.2 °F 37.4 °F 19% 29.94 in 10.0 mi WSW 13.8 mph 17.3 mph N/A   Partly Cloudy
9:35 AM 84.2 °F 32.0 °F 15% 29.95 in 10.0 mi West 10.4 mph - N/A   Scattered Clouds
9:55 AM 84.2 °F 30.2 °F 14% 29.94 in 10.0 mi West 13.8 mph - N/A   Partly Cloudy
10:15 AM 84.2 °F 28.4 °F 13% 29.93 in 10.0 mi West 15.0 mph 19.6 mph N/A   Partly Cloudy
10:35 AM 84.2 °F 30.2 °F 14% 29.93 in 10.0 mi WSW 16.1 mph 20.7 mph N/A   Clear
10:55 AM 87.8 °F 28.4 °F 12% 29.92 in 10.0 mi WSW 16.1 mph - N/A   Clear
11:15 AM 87.8 °F 28.4 °F 12% 29.91 in 10.0 mi WSW 15.0 mph 20.7 mph N/A   Clear
11:35 AM 89.6 °F 26.6 °F 10% 29.90 in 10.0 mi WSW 15.0 mph 23.0 mph N/A   Clear
11:55 AM 89.6 °F 26.6 °F 10% 29.89 in 10.0 mi WSW 16.1 mph 21.9 mph N/A   Clear
12:15 PM 89.6 °F 26.6 °F 10% 29.89 in 10.0 mi WSW 16.1 mph 24.2 mph N/A   Clear
12:35 PM 91.4 °F 28.4 °F 10% 29.88 in 10.0 mi WSW 16.1 mph 19.6 mph N/A   Clear
12:55 PM 91.4 °F 24.8 °F 9% 29.88 in 10.0 mi WSW 17.3 mph 21.9 mph N/A   Clear
1:15 PM 91.4 °F 28.4 °F 10% 29.88 in 10.0 mi WSW 17.3 mph 25.3 mph N/A   Clear
1:35 PM 93.2 °F 24.8 °F 9% 29.88 in 10.0 mi WSW 15.0 mph 27.6 mph N/A   Clear
1:55 PM 91.4 °F 24.8 °F 9% 29.87 in 10.0 mi WSW 20.7 mph 26.5 mph N/A   Clear
2:15 PM 91.4 °F 24.8 °F 9% 29.86 in 10.0 mi WSW 15.0 mph 21.9 mph N/A   Clear
2:35 PM 91.4 °F 24.8 °F 9% 29.86 in 10.0 mi WSW 15.0 mph 19.6 mph N/A   Clear
2:55 PM 91.4 °F 26.6 °F 10% 29.85 in 10.0 mi SW 15.0 mph - N/A   Clear
3:15 PM 91.4 °F 24.8 °F 9% 29.85 in 10.0 mi WSW 17.3 mph 24.2 mph N/A   Clear
3:35 PM 91.4 °F 24.8 °F 9% 29.85 in 10.0 mi WSW 16.1 mph - N/A   Clear
3:55 PM 91.4 °F 26.6 °F 10% 29.84 in 10.0 mi WSW 16.1 mph 20.7 mph N/A   Clear
4:15 PM 91.4 °F 24.8 °F 9% 29.84 in 10.0 mi WSW 16.1 mph 25.3 mph N/A   Clear
4:35 PM 91.4 °F 26.6 °F 10% 29.84 in 10.0 mi WSW 10.4 mph - N/A   Clear
4:55 PM 91.4 °F 28.4 °F 10% 29.83 in 10.0 mi WSW 12.7 mph - N/A   Scattered Clouds
5:15 PM 91.4 °F 28.4 °F 10% 29.83 in 10.0 mi WSW 15.0 mph 19.6 mph N/A   Partly Cloudy
5:35 PM 91.4 °F 26.6 °F 10% 29.82 in 10.0 mi WSW 11.5 mph - N/A   Clear
5:55 PM 89.6 °F 26.6 °F 10% 29.82 in 10.0 mi WSW 9.2 mph - N/A   Scattered Clouds
6:15 PM 89.6 °F 26.6 °F 10% 29.81 in 10.0 mi West 13.8 mph - N/A   Partly Cloudy
6:35 PM 87.8 °F 28.4 °F 12% 29.81 in 10.0 mi West 8.1 mph - N/A Thunderstorm Thunderstorm
6:55 PM 87.8 °F 26.6 °F 11% 29.82 in 10.0 mi WNW 8.1 mph - N/A Thunderstorm Thunderstorm
7:15 PM 86.0 °F 28.4 °F 12% 29.82 in 10.0 mi WNW 3.5 mph - N/A Thunderstorm Mostly Cloudy
7:35 PM 86.0 °F 28.4 °F 12% 29.82 in 10.0 mi WNW 6.9 mph - N/A   Mostly Cloudy
7:55 PM 84.2 °F 28.4 °F 13% 29.84 in 10.0 mi WSW 21.9 mph 28.8 mph N/A Thunderstorm Mostly Cloudy
8:15 PM 73.4 °F 26.6 °F 18% 29.84 in 10.0 mi SSW 10.4 mph - 0.03 in Thunderstorm Thunderstorm
8:35 PM 73.4 °F 24.8 °F 16% 29.84 in 10.0 mi WSW 5.8 mph - 0.03 in Thunderstorm Clear
8:55 PM 73.4 °F 28.4 °F 19% 29.84 in 10.0 mi West 4.6 mph - 0.03 in   Clear
9:15 PM 71.6 °F 28.4 °F 20% 29.85 in 10.0 mi NW 4.6 mph - N/A   Clear
9:35 PM 73.4 °F 33.8 °F 23% 29.86 in 10.0 mi West 3.5 mph - N/A   Partly Cloudy
9:55 PM 73.4 °F 35.6 °F 25% 29.87 in 10.0 mi West 3.5 mph - N/A   Partly Cloudy
10:15 PM 71.6 °F 35.6 °F 27% 29.87 in 10.0 mi West 4.6 mph - N/A   Clear
10:35 PM 71.6 °F 37.4 °F 29% 29.88 in 10.0 mi SW 4.6 mph - N/A   Clear
10:55 PM 71.6 °F 39.2 °F 31% 29.88 in 10.0 mi WNW 6.9 mph - N/A   Clear
11:15 PM 71.6 °F 42.8 °F 35% 29.88 in 10.0 mi NW 8.1 mph - N/A   Clear
11:35 PM 69.8 °F 42.8 °F 38% 29.88 in 10.0 mi NNW 6.9 mph - N/A   Clear
11:55 PM 71.6 °F 41.0 °F 33% 29.88 in 10.0 mi NNW 6.9 mph - N/A   Clear